North Bend, OR

6:50 PM PDT on March 26, 2017 (GMT -0700)
North Bend Municipal

Weather History for KOTH - November, 2013

Change the Weather History Date:

Friday, November 8, 2013

  Actual Average Record
Temperature  
Mean Temperature 49 °F 50 °F  
Max Temperature 55 °F 57 °F 72 °F (1929)
Min Temperature 43 °F 44 °F 28 °F (1920)
Degree Days  
Heating Degree Days 16 15  
Month to date heating degree days 106 115  
Since 1 July heating degree days 767 1081  
Cooling Degree Days 0 0  
Month to date cooling degree days 0 0  
Year to date cooling degree days 13 2  
Moisture  
Dew Point 47 °F    
Average Humidity 93    
Maximum Humidity 100    
Minimum Humidity 77    
Precipitation  
Precipitation 0.00 in 0.32 in 2.92 in (1973)
Month to date precipitation 1.40 2.30  
Year to date precipitation 26.04 45.85  
Sea Level Pressure  
Sea Level Pressure 30.17 in    
Wind  
Wind Speed 6 mph (ESE)    
Max Wind Speed 14 mph    
Max Gust Speed -    
Visibility 9 miles    
Events      
T = Trace of Precipitation, MM = Missing Value Source: NWS Daily Summary

Daily Weather History Graph

Daily Weather History Graph

Search for Another Location

Airport or City:

Trip Planner

Search our weather history database for the weather conditions in past years. The results will help you decide how hot, cold, wet, or windy it might be!

Date:

Astronomy

Nov. 08, 2013 Rise Set
Actual Time 7:01 AM PST 4:59 PM PST
Civil Twilight 6:31 AM PST 5:29 PM PST
Nautical Twilight 5:57 AM PST 6:03 PM PST
Astronomical Twilight 5:23 AM PST 6:37 PM PST
Moon 12:01 PM PST (11/8) 10:27 PM PST (11/8)
Length of Visible Light 10h 57m
Length of Day
9h 57m
Waxing Crescent, 34% of the Moon is Illuminated
Nov 8
Waxing Crescent
Nov 9
First Quarter
Nov 17
Full
Nov 25
Last Quarter
Dec 2
New

Hourly Weather History & Observations

Time (PST) Temp. Windchill Dew Point Humidity Pressure Visibility Wind Dir Wind Speed Gust Speed Precip Events Conditions
12:15 AM 46.4 °F - 46.4 °F 100% 30.22 in 2.5 mi Calm Calm - N/A   Overcast
12:35 AM 46.4 °F 43.5 °F 46.4 °F 100% 30.22 in 2.0 mi SSE 5.8 mph - N/A   Overcast
12:55 AM 46.4 °F 44.3 °F 46.4 °F 100% 30.22 in 0.8 mi SSE 4.6 mph - N/A   Overcast
1:15 AM 44.6 °F 41.4 °F 44.6 °F 100% 30.21 in 1.2 mi SSE 5.8 mph - N/A   Overcast
1:35 AM 46.4 °F 42.9 °F 46.4 °F 100% 30.22 in 10.0 mi SSE 6.9 mph - N/A   Partly Cloudy
1:55 AM 46.4 °F 45.2 °F 44.6 °F 93% 30.22 in 10.0 mi SSE 3.5 mph - N/A   Clear
2:15 AM 46.4 °F 44.3 °F 46.4 °F 100% 30.22 in 10.0 mi SSE 4.6 mph - N/A   Mostly Cloudy
2:35 AM 46.4 °F 44.3 °F 46.4 °F 100% 30.22 in 10.0 mi SSE 4.6 mph - N/A   Overcast
2:55 AM 46.4 °F 42.9 °F 46.4 °F 100% 30.22 in 5.0 mi SSE 6.9 mph - N/A   Overcast
3:15 AM 46.4 °F 42.9 °F 46.4 °F 100% 30.22 in 5.0 mi SSE 6.9 mph - N/A   Overcast
3:35 AM 46.4 °F 42.9 °F 46.4 °F 100% 30.23 in 9.0 mi South 6.9 mph - N/A   Mostly Cloudy
3:55 AM 46.4 °F 42.9 °F 44.6 °F 93% 30.22 in 4.0 mi SSE 6.9 mph - N/A   Mostly Cloudy
4:15 AM 44.6 °F 40.7 °F 44.6 °F 100% 30.22 in 9.0 mi SSE 6.9 mph - N/A   Overcast
4:35 AM 46.4 °F 42.9 °F 46.4 °F 100% 30.22 in 10.0 mi SSE 6.9 mph - N/A   Overcast
4:55 AM 46.4 °F 42.4 °F 46.4 °F 100% 30.22 in 10.0 mi SSE 8.1 mph - N/A   Overcast
5:15 AM 46.4 °F 42.9 °F 46.4 °F 100% 30.23 in 10.0 mi SSE 6.9 mph - N/A   Overcast
5:35 AM 46.4 °F 42.9 °F 46.4 °F 100% 30.23 in 10.0 mi SSE 6.9 mph - N/A   Mostly Cloudy
5:55 AM 46.4 °F 42.4 °F 46.4 °F 100% 30.22 in 10.0 mi SSE 8.1 mph - N/A   Overcast
6:15 AM 46.4 °F 42.4 °F 46.4 °F 100% 30.22 in 10.0 mi SSE 8.1 mph - N/A   Overcast
6:35 AM 46.4 °F 42.4 °F 46.4 °F 100% 30.22 in 10.0 mi SSE 8.1 mph - N/A   Overcast
6:55 AM 46.4 °F 43.5 °F 46.4 °F 100% 30.23 in 10.0 mi SSE 5.8 mph - N/A   Overcast
7:15 AM 46.4 °F 42.9 °F 46.4 °F 100% 30.22 in 10.0 mi SSE 6.9 mph - N/A   Overcast
7:35 AM 46.4 °F 42.4 °F 46.4 °F 100% 30.22 in 10.0 mi SSE 8.1 mph - N/A   Overcast
7:55 AM 46.4 °F 41.9 °F 46.4 °F 100% 30.22 in 10.0 mi SE 9.2 mph - N/A   Overcast
8:15 AM 46.4 °F 42.9 °F 46.4 °F 100% 30.23 in 10.0 mi SSE 6.9 mph - N/A   Overcast
8:35 AM 48.2 °F - 48.2 °F 100% 30.23 in 10.0 mi SSE 5.8 mph - N/A   Overcast
8:55 AM 48.2 °F - 48.2 °F 100% 30.22 in 10.0 mi SSE 9.2 mph - N/A   Overcast
9:15 AM 48.2 °F - 48.2 °F 100% 30.22 in 10.0 mi SE 8.1 mph - N/A   Scattered Clouds
9:35 AM 50.0 °F - 48.2 °F 94% 30.22 in 10.0 mi SSE 5.8 mph - N/A   Clear
9:55 AM 50.0 °F - 48.2 °F 94% 30.22 in 10.0 mi SSE 3.5 mph - N/A   Clear
10:15 AM 51.8 °F - 48.2 °F 88% 30.22 in 10.0 mi Calm Calm - N/A   Clear
10:35 AM 53.6 °F - 48.2 °F 82% 30.22 in 10.0 mi Calm Calm - N/A   Clear
10:55 AM 53.6 °F - 48.2 °F 82% 30.21 in 10.0 mi Calm Calm - N/A   Clear
11:15 AM 53.6 °F - 50.0 °F 88% 30.21 in 10.0 mi Calm Calm - N/A   Clear
11:35 AM 53.6 °F - 50.0 °F 88% 30.20 in 10.0 mi Calm Calm - N/A   Partly Cloudy
11:55 AM 55.4 °F - 48.2 °F 77% 30.19 in 10.0 mi NW 3.5 mph - N/A   Scattered Clouds
12:15 PM 55.4 °F - 48.2 °F 77% 30.18 in 10.0 mi West 3.5 mph - N/A   Scattered Clouds
12:35 PM 55.4 °F - 48.2 °F 77% 30.18 in 10.0 mi NW 6.9 mph - N/A   Scattered Clouds
12:55 PM 55.4 °F - 48.2 °F 77% 30.17 in 10.0 mi NNW 9.2 mph - N/A   Scattered Clouds
1:15 PM 55.4 °F - 48.2 °F 77% 30.16 in 10.0 mi NNW 10.4 mph - N/A   Partly Cloudy
1:35 PM 55.4 °F - 48.2 °F 77% 30.16 in 10.0 mi North 9.2 mph - N/A   Partly Cloudy
1:55 PM 55.4 °F - 48.2 °F 77% 30.15 in 10.0 mi North 13.8 mph - N/A   Partly Cloudy
2:15 PM 55.4 °F - 48.2 °F 77% 30.15 in 10.0 mi North 10.4 mph - N/A   Scattered Clouds
2:35 PM 55.4 °F - 48.2 °F 77% 30.15 in 10.0 mi North 10.4 mph - N/A   Partly Cloudy
2:55 PM 55.4 °F - 50.0 °F 82% 30.14 in 10.0 mi North 11.5 mph - N/A   Clear
3:15 PM 55.4 °F - 50.0 °F 82% 30.14 in 10.0 mi North 11.5 mph - N/A   Clear
3:35 PM 55.4 °F - 50.0 °F 82% 30.14 in 10.0 mi North 12.7 mph - N/A   Scattered Clouds
3:55 PM 53.6 °F - 50.0 °F 88% 30.14 in 10.0 mi North 10.4 mph - N/A   Mostly Cloudy
4:15 PM 53.6 °F - 50.0 °F 88% 30.13 in 10.0 mi North 12.7 mph - N/A   Mostly Cloudy
4:35 PM 53.6 °F - 50.0 °F 88% 30.13 in 10.0 mi North 11.5 mph - N/A   Overcast
4:55 PM 53.6 °F - 50.0 °F 88% 30.12 in 10.0 mi North 12.7 mph - N/A   Overcast
5:15 PM 51.8 °F - 50.0 °F 94% 30.13 in 10.0 mi North 11.5 mph - N/A   Overcast
5:35 PM 51.8 °F - 50.0 °F 94% 30.12 in 10.0 mi NNE 11.5 mph - N/A   Mostly Cloudy
5:55 PM 51.8 °F - 50.0 °F 94% 30.12 in 10.0 mi NNE 9.2 mph - N/A   Clear
6:15 PM 51.8 °F - 50.0 °F 94% 30.12 in 10.0 mi NNE 6.9 mph - N/A   Clear
6:35 PM 50.0 °F - 50.0 °F 100% 30.13 in 10.0 mi North 6.9 mph - N/A   Clear
6:55 PM 50.0 °F - 48.2 °F 94% 30.13 in 10.0 mi NNE 4.6 mph - N/A   Clear
7:15 PM 48.2 °F - 46.4 °F 93% 30.13 in 10.0 mi NE 3.5 mph - N/A   Clear
7:35 PM 48.2 °F - 48.2 °F 100% 30.12 in 10.0 mi NE 4.6 mph - N/A   Clear
7:55 PM 46.4 °F - 46.4 °F 100% 30.12 in 10.0 mi Calm Calm - N/A   Clear
8:15 PM 46.4 °F - 44.6 °F 93% 30.12 in 10.0 mi Calm Calm - N/A   Clear
8:35 PM 46.4 °F - 46.4 °F 100% 30.12 in 9.0 mi Calm Calm - N/A   Clear
8:55 PM 46.4 °F - 46.4 °F 100% 30.12 in 10.0 mi Calm Calm - N/A   Clear
9:15 PM 44.6 °F - 44.6 °F 100% 30.12 in 10.0 mi Calm Calm - N/A   Clear
9:35 PM 44.6 °F - 42.8 °F 93% 30.11 in 10.0 mi Calm Calm - N/A   Clear
9:55 PM 42.8 °F 40.1 °F 42.8 °F 100% 30.11 in 10.0 mi SSE 4.6 mph - N/A   Clear
10:15 PM 44.6 °F 43.1 °F 44.6 °F 100% 30.11 in 9.0 mi ESE 3.5 mph - N/A   Clear
10:35 PM 44.6 °F - 44.6 °F 100% 30.10 in 8.0 mi Calm Calm - N/A   Clear
10:55 PM 44.6 °F - 42.8 °F 93% 30.10 in 5.0 mi Calm Calm - N/A   Clear
11:15 PM 44.6 °F - 42.8 °F 93% 30.10 in 6.0 mi Calm Calm - N/A   Clear
11:35 PM 42.8 °F 40.1 °F 42.8 °F 100% 30.10 in 8.0 mi NE 4.6 mph - N/A   Clear
11:55 PM 42.8 °F - 41.0 °F 93% 30.09 in 2.0 mi Calm Calm - N/A   Scattered Clouds